Location: Hohenfelde
(53.8441°N, 9.6220°E)
Time: 12:22:34
(UTC+00:00)

Cosmos 1656 - Pass Details

Date: 14 July 2020
Orbit: 799 x 848 km, 71.1° (Epoch: 13 August)

Event Time Altitude Azimuth Distance (km) Brightness Sun altitude
Rises 00:42:55 0° 326° (NNW) 3,321 7.4 -12.8°
Reaches altitude 10° 00:45:21 10° 325° (NW) 2,386 6.6 -12.7°
Maximum altitude 00:50:45 69° 243° (WSW) 862 3.6 -12.4°
Drops below altitude 10° 00:56:08 10° 161° (SSE) 2,380 5.6 -12.1°
Enters shadow 00:56:32 - 161° (SSE) 2,533 5.7 -12.1°
